Location: Unspecified
(0.0000°N, 1.0000°E)
Time: 04:18:16
(UTC+01:00)

X-37B - Visible Passes

Search period start: 21 January 2022 00:00
Search period end: 31 January 2022 00:00
Orbit: 334 x 337 km, 45.0° (Epoch: 11 January)

Date Brightness Start Highest point End Pass type
(mag) Time Alt. Az. Time Alt. Az. Time Alt. Az.
21 Jan 1.4 06:37:47 10° NNW 06:40:27 40° NE 06:43:10 10° ESE visible
21 Jan 3.2 19:37:06 10° WNW 19:38:21 12° NW 19:39:36 10° NNW visible
23 Jan 1.3 05:45:45 39° NE 05:45:54 39° NE 05:48:36 10° ESE visible
24 Jan 1.5 06:05:53 26° WSW 06:06:15 27° SW 06:08:45 10° SSE visible
